Location: Unspecified
(0.0000°N, 1.0000°E)
Time: 04:20:45
(UTC+02:00)

Daily predictions for brighter satellites

Satellite Brightness Start Highest point End
(mag) Time Altitude Azimuth Time Altitude Azimuth Time Altitude Azimuth
ARIANE 5 R/B 4.4 04:38:10 59° ENE 04:38:10 59° ENE 05:10:36 10° E
ARIANE 5 R/B 4.4 04:38:10 59° ENE 04:38:10 59° ENE 05:10:35 10° E
ARIANE 5 R/B 4.4 04:38:09 59° ENE 04:38:09 59° ENE 05:10:35 10° E
Atlas Centaur 2 4.4 04:39:10 26° ENE 04:39:10 26° ENE 04:42:33 10° E
Cosmos 2297 Rocket 3.9 05:15:21 26° ESE 05:15:36 26° ESE 05:20:13 10° NE
SL-16 R/B 4.1 05:36:09 23° NNW 05:36:09 23° NNW 05:38:18 10° NNW
NOSS 3-1 (C) 4.3 05:41:55 34° NNW 05:41:55 34° NNW 05:45:24 10° N
ARIANE 5 R/B 3.5 05:45:52 49° NE 05:45:52 49° NE 05:48:24 10° E
ADEOS II 2.9 05:44:49 10° NNE 05:49:51 48° ESE 05:51:47 33° SSE
SWIFT 3.5 05:54:23 39° E 05:54:23 39° E 05:57:14 10° ENE
Cosmos 2112 Rocket 4.4 05:49:42 10° NNW 05:53:36 53° NNW 05:53:36 53° NNW
Cosmos 1825 3.8 06:00:16 28° SE 06:01:16 33° E 06:04:42 10° NNE
Lacrosse 5 1.7 06:01:07 77° NNW 06:01:29 89° ENE 06:06:33 10° SSE
BLOCK DM-SL R/B 3.2 06:07:09 54° W 06:08:18 85° N 06:14:12 10° E
Cosmos 1408 3.7 06:08:01 36° SE 06:08:47 41° E 06:12:13 10° NNE
MOZ.5/SAFIR/RUBIN 5/SL-8 3.8 06:06:37 18° SSE 06:10:02 77° E 06:14:40 10° N
Ariane H10 3.3 06:08:34 45° WNW 06:10:26 75° N 06:31:24 10° E
Delta 202 4.2 06:13:17 43° SW 06:14:04 45° SSW 06:21:19 10° SE
ADEOS Rocket 3.2 06:13:49 10° NNE 06:19:20 60° ESE 06:24:43 10° S
Cosmos 2218 Rocket 3.8 06:16:35 20° S 06:20:58 78° W 06:27:06 10° N
BLOCK DM-SL R/B 4.0 06:16:10 28° W 06:22:01 90° NNW 06:27:01 10° E
Milstar 3 4.1 06:03:46 10° WNW 06:22:35 86° SSW 06:31:51 10° ESE
NOSS 3-1 (A) 4.4 06:25:03 25° WNW 06:25:03 25° WNW 06:29:38 10° NNW
Cosmos 2227 Rocket 3.0 06:25:56 30° WNW 06:25:56 30° WNW 06:30:46 10° NNW
Cosmos 1908 Rocket 4.2 06:26:30 37° WNW 06:26:30 37° WNW 06:30:05 10° NNW
Atlas Centaur 2 2.3 06:21:57 24° WNW 06:26:26 72° SSW 06:32:03 10° SE
ARIANE 5 DEB (SYLDA) 4.2 06:29:44 14° SE 06:29:44 14° SE 06:30:12 10° SE
Thor Agena Rocket 3.7 06:26:09 16° S 06:30:07 48° WSW 06:35:11 10° NNW
Cosmos 864 Rocket 4.4 06:28:39 10° S 06:34:58 74° W 06:41:15 10° N
Cosmos 372 Rocket 3.9 06:32:30 27° SSW 06:35:14 63° WNW 06:40:21 10° N
Lacrosse 5 rocket 2.8 06:34:37 10° NNW 06:39:00 44° ENE 06:43:23 10° SE
GPS 2-17 Rocket1 4.3 06:36:30 10° NW 06:41:06 42° NNE 06:45:40 10° E
CZ-4B R/B 3.8 06:38:00 10° N 06:41:57 58° WNW 06:44:08 24° SSW
Ariane H10 4.2 06:41:19 27° SW 06:42:12 31° S 06:44:38 10° ESE
Cosmos 1862 4.1 06:43:49 30° W 06:44:13 31° W 06:47:46 10° NNW
Ariane 42L Rocket 1.9 06:43:27 40° WSW 06:44:18 81° S 06:50:11 10° E
NOAA 6 4.0 06:40:15 10° N 06:45:21 63° WNW 06:50:28 10° SSW
Ariane Rocket 3.0 06:41:38 10° N 06:46:41 65° WNW 06:51:44 10° SSW
Cosmos 2360 Rocket 2.3 06:41:31 10° NNW 06:46:58 52° WSW 06:52:27 10° S
ATLAS 2AS CENTAUR R/B 2.8 06:43:24 18° SW 06:48:29 62° WNW 06:55:44 10° NNE
CSL-04 Rocket 3.7 06:44:01 10° NNE 06:49:20 80° ESE 06:54:45 10° S
Palapa 6 Rocket 3.1 06:49:12 24° SW 06:51:22 57° SSE 06:55:50 10° ENE
Cosmos 1782 2.8 06:48:54 10° NNW 06:52:47 58° W 06:56:43 10° S
GP-B 4.3 06:50:23 10° NW 06:53:48 22° W 06:54:43 20° WSW
ARIANE 5 DEB (SYLDA) 4.3 06:38:00 10° W 06:54:13 74° N 06:58:09 10° E
Cosmos 1674 Rocket 4.0 06:53:04 10° NNW 06:57:05 39° W 07:01:10 10° SSW
Cosmos 2297 Rocket 3.5 06:57:14 17° WSW 06:59:21 21° WNW 07:03:31 10° NNW
Cosmos 2322 4.1 06:54:07 10° NW 06:59:22 39° WSW 07:04:38 10° S
Cosmos 292 Rocket 3.6 06:57:22 10° NNW 07:02:06 74° WSW 07:06:50 10° S
BREEZE-M DEB (TANK) 3.3 07:04:16 15° WSW 07:07:26 29° WNW 07:10:01 10° N
PSLV R/B 4.5 07:08:09 14° W 07:10:02 22° SW 07:12:40 10° S
IRS-1A Rocket 4.2 07:07:46 10° N 07:13:18 78° WNW 07:18:48 10° SSW
Meteor 1-31 Rocket 4.4 07:11:04 10° NW 07:13:36 17° W 07:15:56 11° WSW
Meteor 2-10 Rocket 4.4 07:10:05 10° NW 07:14:32 29° W 07:19:11 10° SSW
Maqsat-H 3.4 07:12:06 10° WNW 07:15:33 38° N 07:23:18 10° ENE
Okean 3 3.4 07:11:41 10° N 07:15:54 88° W 07:20:10 10° S
GPS 2-12 Rocket1 4.2 07:12:54 10° SW 07:16:52 31° SSE 07:20:49 10° E
Cosmos 1238 Rocket 4.3 07:12:01 10° NNW 07:17:21 34° W 07:21:55 10° SSW
Ariane H10-3 3.6 07:14:15 11° WSW 07:18:05 73° S 07:43:51 10° E
Cosmos 2333 Rocket 4.3 07:13:15 10° NNE 07:18:20 33° ENE 07:23:26 10° SE
CZ-3 R/B 4.3 07:14:38 10° SW 07:19:50 12° SSW 07:23:22 10° S
Cosmos 1606 3.0 07:17:23 10° NNW 07:20:59 43° W 07:24:37 10° SSW
YAOGAN 1 4.2 07:17:44 10° NE 07:21:42 36° ESE 07:25:41 10° S
CZ-3 Stage 3 2.0 07:21:38 10° NW 07:23:35 50° NNE 07:26:06 10° ESE
NOSS 2-3 (E) 3.9 07:21:49 10° SSW 07:26:39 62° WNW 07:31:17 10° NNE
ARIANE 5 DEB (SYLDA) 2.8 07:21:48 10° W 07:27:43 86° S 07:31:21 10° E
COSMOS 2428 2.9 07:23:09 10° NNW 07:28:34 48° WSW 07:34:01 10° S
Cosmos 2227 4.3 07:23:21 10° SSW 07:28:54 61° WNW 07:34:24 10° N
Cosmos 192 4.5 07:26:20 10° N 07:31:12 83° ENE 07:36:07 10° SSE
MOS 1 4.4 07:27:14 10° NNE 07:32:55 87° ESE 07:38:36 10° SSW
MAQSAT/ARIANE V 2.6 07:20:26 10° W 07:33:09 80° N 07:36:01 10° ENE
